[Iaude] MPEC X166: 2023 XF5 [a=2.48,e=0.96,i=23.3,H=21.1]

mpec at marsden.cfa.harvard.edu mpec at marsden.cfa.harvard.edu
Sat Dec 9 20:33:06 EST 2023


M.P.E.C. 2023-X166                            Issued 2023 December 10, 01:31 UT

     The Minor Planet Electronic Circulars contain information on unusual
         minor planets, routine data on comets and natural satellites,
         and occasional editorial announcements.  They are published
    on behalf of Division F of the International Astronomical Union by the
          Minor Planet Center, Smithsonian Astrophysical Observatory,
                          Cambridge, MA 02138, U.S.A.
			  
             Prepared using the Tamkin Foundation Computer Network

                              MPC at CFA.HARVARD.EDU
            URL https://www.minorplanetcenter.net/    ISSN 1523-6714

                                    2023 XF5                                    


Observations:
     K23X05F* C2023 12 07.44373807 30 32.255+29 04 10.16         20.74wXEX166F52
     K23X05F  C2023 12 07.45468507 30 31.717+29 04 41.63         20.67wXEX166F52
     K23X05F  C2023 12 07.46563107 30 31.163+29 05 13.11         20.76wXEX166F52
     K23X05F  C2023 12 07.50051207 30 28.130+29 06 47.34         20.52GVEX166V00
     K23X05F  C2023 12 07.50601607 30 27.871+29 07 02.86         20.20GVEX166V00
     K23X05F  C2023 12 07.51151507 30 27.590+29 07 18.52         20.47GVEX166V00
     K23X05F  C2023 12 07.58860507 30 24.748+29 11 06.68         19.57GVEX166F52
     K23X05F KC2023 12 07.91953107 30 11.96 +29 27 11.1          20.4 GVEX166L01
     K23X05F KC2023 12 07.92121207 30 11.86 +29 27 16.5          20.5 GVEX166L01
     K23X05F KC2023 12 07.92289507 30 11.77 +29 27 21.2          20.3 GVEX166L01
     K23X05F IC2023 12 07.92457607 30 11.68 +29 27 26.5          20.5 GVEX166L01
     K23X05F KC2023 12 07.92625707 30 11.64 +29 27 31.5          20.8 GVEX166L01
     K23X05F KC2023 12 08.00789 07 30 07.35 +29 31 42.0          19.6 GVEX166104
     K23X05F KC2023 12 08.02041 07 30 06.72 +29 32 21.1          19.7 GVEX166104
     K23X05F KC2023 12 08.29190107 29 53.66 +29 46 28.4          20.9 GVEX166H21
     K23X05F KC2023 12 08.29749207 29 53.35 +29 46 46.2          21.0 GVEX166H21
     K23X05F KC2023 12 08.35566907 29 50.36 +29 49 53.7          19.8 GXEX166858
     K23X05F KC2023 12 08.36236507 29 49.94 +29 50 15.4          20.0 GXEX166858
     K23X05F KC2023 12 08.36925207 29 49.54 +29 50 37.6          20.0 GXEX166858
     K23X05F 1C2023 12 08.41066607 29 47.604+29 52 47.25               LEX166658
     K23X05F 1C2023 12 08.41320007 29 47.390+29 52 56.07               LEX166658
     K23X05F 1C2023 12 08.42839707 29 46.412+29 53 42.94               LEX166658
     K23X05F 1C2023 12 08.43093207 29 46.231+29 53 50.73               LEX166658
     K23X05F 1C2023 12 08.43346607 29 46.060+29 53 58.82               LEX166658
     K23X05F  C2023 12 08.50025607 29 41.884+29 57 38.98         20.3 GVEX166U74
     K23X05F  C2023 12 08.50417607 29 41.639+29 57 52.24         20.3 GVEX166U74
     K23X05F KC2023 12 09.15179207 29 06.99 +30 34 36.2          19.7 GXEX166W62
     K23X05F KC2023 12 09.16195807 29 06.29 +30 35 13.1          19.6 GXEX166W62
     K23X05F KC2023 12 09.17196007 29 05.64 +30 35 49.2          19.6 GXEX166W62
     K23X05F !C2023 12 09.35027 07 28 53.96 +30 46 40.5          20.1 RVEX166673
     K23X05F !C2023 12 09.35907 07 28 53.32 +30 47 13.8                VEX166673
     K23X05F  C2023 12 09.46835807 28 44.785+30 53 59.28         20.42GVEX166V00
     K23X05F  C2023 12 09.47326107 28 44.404+30 54 17.35         20.50GVEX166V00
     K23X05F  C2023 12 09.47815707 28 44.029+30 54 35.57         20.53GVEX166V00
     K23X05F  C2023 12 09.48304807 28 43.655+30 54 53.64         20.33GVEX166V00
     K23X05F KB2023 12 09.92400007 28 15.30 +31 23 05.8          19.8 GXEX166958
     K23X05F KB2023 12 09.92844807 28 14.92 +31 23 23.4          19.4 GXEX166958
     K23X05F KB2023 12 09.93250807 28 14.64 +31 23 39.4          19.5 GXEX166958
     K23X05F KC2023 12 09.95899107 28 12.336+31 25 24.20         19.4 GVEX166J95
     K23X05F KC2023 12 09.96373807 28 11.940+31 25 43.64         19.9 GVEX166J95
     K23X05F KC2023 12 09.97111307 28 11.333+31 26 13.27         20.4 GVEX166J95

Observer details:
104 San Marcello Pistoiese.  Observers P. Bacci, M. Maestripieri.  Measurer P.
    Bacci.  0.60-m f/4.0 reflector + CCD.
658 National Research Council of Canada.  Observers D. D. Balam, C. E. Spratt.
    Measurers D. D. Balam, D. W. E. Green.  1.82-m Reflector + CCD.
673 Table Mountain Observatory, Wrightwood.  Observer J. Pittichova.  1.0-m
    f/15 reflector + CCD.
858 Tebbutt Observatory, Edgewood.  Observer F. B. Zoltowski.  0.51-m f/8.1
    Schmidt-Cassegrain + CCD.
958 Observatoire de Dax.  Observer P. Dupouy.  0.50-m f/4.5 Reflector + CMO.
F52 Pan-STARRS 2, Haleakala.  Observers J. Herman, T. Lowe, P. Minguez, A.
    Schultz, I. Smith.  Measurers K. Chambers, T. de Boer, J. Fairlamb, H.
    Gao, M. Huber, C.-C. Lin, E. Magnier, Y. Ramanjooloo, R. Wainscoat, R.
    Weryk.  1.8-m Ritchey-Chretien + CCD.
H21 Astronomical Research Observatory, Westfield.  Observer R. Holmes.
    Measurers T. Linder, R. Holmes, L. Horn.  0.76-m f/3.0 astrograph + CCD.
J95 Great Shefford.  Observer P. Birtwhistle.  0.41-m f/6.3 Schmidt-Cassegrain
    + CCD.
L01 Visnjan Observatory, Tican.  Observers K. Korlevic, I. Lyon.  Measurer K.
    Korlevic.  1.0-m f/2.9 reflector + CCD.
U74 JPL SynTrack Robotic Telescope 2, Auberry.  Observers N. Saini, C. Zhai,
    R. Trahan, M. Zhan, M. Shao.  0.36-m Reflector + CCD.
V00 Kitt Peak-Bok.  Observer H. Groeller.  Measurers M. J. Brucker, C. E.
    Woodward, D. Fay, J. B. Fazekas, D. C. Fuls, A. R. Gibbs, H. Groeller, J.
    K. Hogan, R. A. Kowalski, S. M. Larson, C. Lejoly, G. J. Leonard, R. A.
    Mastaler, R. S. McMillan, D. Rankin, R. L. Seaman, A. Serrano, F. C.
    Shelly, K. W. Wierzchos.  2.25-m reflector + 4x4K mosaic CCD.
W62 Comet Hunter Observatory2, New Ringgold.  Observer J. Maikner.  0.30-m
    f/3.8 Riccardi-Honders + CCD.

Orbital elements:
2023 XF5                                                 Earth MOID = 0.0719 AU
Epoch 2023 Sept. 13.0 TT = JDT 2460200.5                Bell                    
M 325.99965              (2000.0)            P               Q                  
n   0.25212951     Peri.  156.07532     -0.53747763     +0.74855051             
a   2.4815342      Node    79.17945     -0.82335480     -0.36632466             
e   0.9568882      Incl.   23.28756     -0.18222149     -0.55270098             
P   3.91           H   21.17          G   0.15           U   9                  
Residuals in seconds of arc
231207 F52  0.1-  0.0     231208 H21  0.1-  0.0     231209 W62  0.5+  0.1-
231207 F52  0.0   0.0     231208 H21  0.1+  0.1-    231209 673  0.3-  0.3-
231207 F52  0.1-  0.0     231208 858  0.1-  0.0     231209 673  0.0   0.4+
231207 V00  0.0   0.0     231208 858  0.3-  0.1+    231209 V00  0.0   0.0
231207 V00  0.1+  0.1-    231208 858  0.0   0.2+    231209 V00  0.0   0.0
231207 V00  0.0   0.1+    231208 658  2.1+  2.7+    231209 V00  0.0   0.0
231207 F52  0.1-  0.2+    231208 658  1.3+  3.4+    231209 V00  0.0   0.0
231207 L01  0.2-  0.1+    231208 658  0.4+  1.1+    231209 958  0.4+  0.0
231207 L01  0.4-  0.4+    231208 658  0.0   0.7+    231209 958  0.0   0.4-
231207 L01  0.4-  0.1-    231208 658  0.2-  0.6+    231209 958  0.5+  0.8-
231207 L01  0.5-  0.1+    231208 U74  0.6+  0.1-    231209 J95  0.2+  0.0
231207 L01  0.1+  0.1-    231208 U74  0.6+  0.4+    231209 J95  0.0   0.2+
231208 104  0.3-  0.4-    231209 W62  0.3+  0.0     231209 J95  0.2-  0.1-
231208 104  0.4+  0.2+    231209 W62  0.1+  0.1+

Ephemeris:
2023 XF5                 a,e,i = 2.48, 0.96, 23                  q = 0.1070
Date    TT    R. A. (2000) Decl.     Delta      r    Elong.  Phase     V
2023 11 10    07 23 27.8 +21 41 17   1.0205  1.7208   117.7    30.7    23.7
...
2023 11 25    07 31 15.9 +23 42 20   0.6476  1.4959   131.3    29.7    22.4
...
2023 12 03    07 32 11.2 +26 20 53   0.4573  1.3659   139.4    28.0    21.4
...
2023 12 09    07 29 14.8 +30 25 47   0.3196  1.2628   146.0    25.8    20.4
2023 12 10    07 28 08.2 +31 28 19   0.2972  1.2451   147.1    25.4    20.2
2023 12 11    07 26 44.0 +32 40 50   0.2750  1.2272   148.2    25.0    20.0
...
2023 12 17    07 02 28.6 +47 03 01   0.1491  1.1164   150.6    25.6    18.4
...
2023 12 25    20 50 48.8 +37 20 37   0.09435 0.9577    71.4   103.2    19.7
...
2024 01 09    19 56 13.4 -07 10 27   0.4045  0.6107    17.7   150.6    26.7

M. P. C. Staff               (C) Copyright 2023 MPC           M.P.E.C. 2023-X166





More information about the Iaude mailing list